Location: Lake Lucerne
(45.5315°N, 88.8489°W)
Time: 20:37:36
(UTC-05:00)

ISS - Visible Passes

Search period start: 22 May 2018 00:00
Search period end: 01 June 2018 00:00
Orbit: 402 x 407 km, 51.6° (Epoch: 23 May)

Date Brightness Start Highest point End Pass type
(mag) Time Alt. Az. Time Alt. Az. Time Alt. Az.
22 May -1.6 00:39:37 10° WNW 00:42:28 27° N 00:45:19 10° ENE visible
22 May -2.6 02:16:21 10° NW 02:19:29 42° NNE 02:22:37 10° E visible
22 May -3.4 03:52:53 10° WNW 03:55:58 39° SW 03:59:02 10° SSE visible
22 May -3.6 22:10:01 10° WSW 22:13:17 73° NNW 22:16:34 10° ENE visible
22 May -1.7 23:47:14 10° WNW 23:50:08 28° N 23:53:02 10° NE visible
23 May -2.0 01:24:11 10° NW 01:27:12 33° NNE 01:30:12 10° E visible
23 May -4.0 03:00:38 10° WNW 03:03:53 69° SSW 03:07:08 10° SE visible
23 May -1.7 04:39:11 10° WSW 04:39:49 10° SW 04:40:27 10° SW visible
23 May -3.9 21:17:53 10° SW 21:21:07 68° SSE 21:24:23 10° ENE visible
23 May -2.0 22:54:47 10° W 22:57:48 33° NNW 23:00:49 10° NE visible
24 May -1.7 00:31:58 10° NW 00:34:52 28° N 00:37:44 10° ENE visible
24 May -2.3 02:08:27 10° WNW 02:10:14 29° NW 02:10:14 29° NW visible
24 May -2.5 22:02:22 10° W 22:05:30 43° NNW 22:08:39 10° NE visible
24 May -1.6 23:39:39 10° WNW 23:42:30 26° N 23:45:21 10° ENE visible
25 May -2.4 01:16:18 10° NW 01:18:41 37° NNW 01:18:41 37° NNW visible
25 May -3.3 21:09:59 10° WSW 21:13:14 62° NNW 21:16:29 10° ENE visible
25 May -1.6 22:47:15 10° WNW 22:50:08 27° N 22:53:00 10° NE visible
26 May -2.3 00:24:07 10° NW 00:27:11 35° NNE 00:27:43 33° NE visible
26 May -1.9 21:54:47 10° WNW 21:57:45 31° N 22:00:43 10° NE visible
26 May -1.9 23:31:53 10° NW 23:34:49 29° N 23:36:56 15° ENE visible
27 May -1.7 01:08:20 10° WNW 01:09:33 21° WNW 01:09:33 21° WNW visible
27 May -2.2 21:02:18 10° W 21:05:23 38° NNW 21:08:30 10° NE visible
27 May -1.7 22:39:34 10° WNW 22:42:26 27° N 22:45:17 10° ENE visible
28 May -2.9 00:16:08 10° WNW 00:18:51 48° NNW 00:18:51 48° NNW visible
28 May -1.7 21:47:09 10° WNW 21:50:01 27° N 21:52:52 10° ENE visible
28 May -2.5 23:23:56 10° NW 23:27:02 39° NNE 23:28:12 28° ENE visible
29 May -1.1 01:00:25 10° WNW 01:00:50 13° WNW 01:00:50 13° WNW visible
29 May -2.1 22:31:41 10° NW 22:34:40 31° NNE 22:37:35 10° ENE visible
30 May -2.6 00:08:07 10° WNW 00:10:13 37° WNW 00:10:13 37° WNW visible
30 May -1.8 21:39:21 10° NW 21:42:13 27° N 21:45:06 10° ENE visible
30 May -3.5 23:15:51 10° WNW 23:19:07 63° NNE 23:19:37 53° ENE visible
31 May -2.8 22:23:37 10° NW 22:26:47 43° NNE 22:29:03 16° E visible
